Weather History for KTYQ - December, 2013

Change the Weather History Date:

Friday, December 6, 2013

  Actual Average (KEYE) Record (KEYE)
Temperature  
Mean Temperature 24 °F 35 °F  
Max Temperature 26 °F 42 °F 72 °F (1998)
Min Temperature 21 °F 28 °F 7 °F (2010)
Degree Days  
Heating Degree Days 42 30  
Month to date heating degree days 175  
Since 1 July heating degree days 1199  
Cooling Degree Days 0 0  
Month to date cooling degree days 0  
Year to date cooling degree days 1058  
Moisture  
Dew Point 18 °F    
Average Humidity 76    
Maximum Humidity 86    
Minimum Humidity 72    
Precipitation  
Precipitation 0.00 in 0.09 in 0.30 in (1998)
Month to date precipitation 0.53  
Year to date precipitation 38.24  
Sea Level Pressure  
Sea Level Pressure 30.28 in    
Wind  
Wind Speed 7 mph (NNW)    
Max Wind Speed 13 mph    
Max Gust Speed 16 mph    
Visibility 9 miles    
Events Snow    
T = Trace of Precipitation, MM = Missing Value Source: NWS Daily Summary

Daily Weather History Graph

Daily Weather History Graph

Search for Another Location

Airport or City:

Trip Planner

Search our weather history database for the weather conditions in past years. The results will help you decide how hot, cold, wet, or windy it might be!

Date:

Astronomy

Dec. 06, 2013 Rise Set
Actual Time 7:52 AM EST 5:19 PM EST
Civil Twilight 7:22 AM EST 5:49 PM EST
Nautical Twilight 6:48 AM EST 6:23 PM EST
Astronomical Twilight 6:15 AM EST 6:56 PM EST
Moon 10:57 AM EST (12/6) 9:50 PM EST (12/6)
Length of Visible Light 10h 27m
Length of Day
9h 26m
Waxing Crescent, 19% of the Moon is Illuminated
Dec 6
Waxing Crescent
Dec 9
First Quarter
Dec 17
Full
Dec 25
Last Quarter
Jan 1
New

Hourly Weather History & Observations

Time (EST) Temp. Windchill Dew Point Humidity Pressure Visibility Wind Dir Wind Speed Gust Speed Precip Events Conditions
12:15 AM 23.9 °F 16.8 °F 20.1 °F 85% 30.23 in 1.2 mi WNW 5.8 mph - N/A Snow Light Snow
12:35 AM 23.7 °F 16.6 °F 20.1 °F 86% 30.21 in 2.5 mi NW 5.8 mph - N/A Snow Light Snow
12:55 AM 23.7 °F 17.8 °F 19.9 °F 85% 30.20 in 1.5 mi NW 4.6 mph - N/A Snow Light Snow
1:15 AM 23.7 °F 17.8 °F 19.9 °F 85% 30.19 in 5.0 mi NW 4.6 mph - N/A Snow Light Snow
1:35 AM 23.9 °F - 19.6 °F 84% 30.20 in 10.0 mi Calm Calm - N/A Snow Light Snow
1:55 AM 23.9 °F - 19.4 °F 83% 30.19 in 10.0 mi Calm Calm - N/A Snow Light Snow
2:15 AM 23.9 °F 15.8 °F 18.1 °F 79% 30.21 in 7.0 mi NW 6.9 mph - N/A Snow Light Snow
2:35 AM 23.9 °F 15.8 °F 17.4 °F 76% 30.20 in 10.0 mi NW 6.9 mph - N/A Snow Light Snow
2:55 AM 23.9 °F 16.8 °F 17.4 °F 76% 30.20 in 10.0 mi NNW 5.8 mph - N/A   Overcast
3:15 AM 23.9 °F 15.8 °F 17.4 °F 76% 30.21 in 7.0 mi NNW 6.9 mph - N/A Snow Light Snow
3:35 AM 24.1 °F 18.2 °F 17.6 °F 76% 30.22 in 10.0 mi NNW 4.6 mph - N/A   Overcast
3:55 AM 24.4 °F 18.6 °F 17.6 °F 75% 30.23 in 10.0 mi WNW 4.6 mph - N/A   Overcast
4:15 AM 24.4 °F 20.1 °F 17.6 °F 75% 30.23 in 10.0 mi WNW 3.5 mph - N/A   Overcast
4:35 AM 24.6 °F 16.7 °F 17.6 °F 75% 30.23 in 10.0 mi NW 6.9 mph - N/A   Overcast
4:55 AM 24.4 °F 15.6 °F 17.1 °F 73% 30.23 in 10.0 mi NNW 8.1 mph - N/A   Overcast
5:15 AM 24.3 °F 17.3 °F 16.9 °F 73% 30.21 in 10.0 mi NNW 5.8 mph - N/A   Overcast
5:35 AM 24.3 °F 16.3 °F 17.1 °F 74% 30.21 in 10.0 mi NNW 6.9 mph - N/A   Mostly Cloudy
5:55 AM 24.3 °F 15.4 °F 17.2 °F 75% 30.21 in 10.0 mi NNW 8.1 mph - N/A   Overcast
6:15 AM 24.3 °F 16.3 °F 17.2 °F 75% 30.22 in 10.0 mi NNW 6.9 mph - N/A   Overcast
6:35 AM 24.3 °F 14.6 °F 17.2 °F 75% 30.24 in 10.0 mi NNW 9.2 mph - N/A   Overcast
6:55 AM 24.3 °F 14.6 °F 16.9 °F 73% 30.24 in 10.0 mi NNW 9.2 mph - N/A   Overcast
7:15 AM 24.4 °F 17.5 °F 17.6 °F 75% 30.24 in 10.0 mi NNW 5.8 mph - N/A   Overcast
7:35 AM 24.3 °F 17.3 °F 17.4 °F 75% 30.26 in 10.0 mi NNW 5.8 mph - N/A   Overcast
7:55 AM 24.4 °F 18.6 °F 17.2 °F 74% 30.25 in 10.0 mi North 4.6 mph - N/A   Overcast
8:15 AM 24.4 °F 15.6 °F 17.4 °F 75% 30.26 in 10.0 mi NNW 8.1 mph - N/A   Overcast
8:35 AM 24.4 °F 14.2 °F 17.6 °F 75% 30.27 in 10.0 mi NNW 10.4 mph - N/A   Overcast
8:55 AM 24.4 °F 15.6 °F 17.6 °F 75% 30.26 in 10.0 mi North 8.1 mph - N/A   Overcast
9:15 AM 24.6 °F 17.7 °F 17.6 °F 75% 30.25 in 10.0 mi North 5.8 mph - N/A   Overcast
9:35 AM 24.8 °F 15.3 °F 17.6 °F 74% 30.27 in 10.0 mi NNW 9.2 mph - N/A   Overcast
9:55 AM 24.8 °F 14.0 °F 17.6 °F 74% 30.28 in 10.0 mi NNW 11.5 mph - N/A   Overcast
10:15 AM 25.3 °F 17.6 °F 18.0 °F 74% 30.29 in 10.0 mi NNW 6.9 mph - N/A   Overcast
10:35 AM 25.7 °F 16.4 °F 18.1 °F 73% 30.31 in 10.0 mi NNW 9.2 mph - N/A   Overcast
10:55 AM 25.7 °F 18.0 °F 18.1 °F 73% 30.31 in 10.0 mi North 6.9 mph - N/A   Overcast
11:15 AM 26.1 °F 19.4 °F 18.3 °F 73% 30.30 in 10.0 mi North 5.8 mph - N/A   Overcast
11:35 AM 26.2 °F 20.7 °F 18.5 °F 73% 30.29 in 10.0 mi North 4.6 mph - N/A   Mostly Cloudy
11:55 AM 26.4 °F 18.0 °F 18.5 °F 72% 30.29 in 10.0 mi North 8.1 mph - N/A   Overcast
12:15 PM 26.4 °F 18.0 °F 18.7 °F 73% 30.28 in 10.0 mi NNW 8.1 mph - N/A   Overcast
12:35 PM 26.6 °F 16.2 °F 18.7 °F 72% 30.27 in 10.0 mi NNW 11.5 mph - N/A   Overcast
12:55 PM 26.6 °F 16.8 °F 18.9 °F 73% 30.27 in 10.0 mi NNW 10.4 mph - N/A   Overcast
1:15 PM 26.6 °F 17.5 °F 19.2 °F 74% 30.27 in 10.0 mi North 9.2 mph - N/A   Overcast
1:35 PM 26.6 °F 16.8 °F 19.0 °F 73% 30.26 in 10.0 mi North 10.4 mph - N/A   Overcast
1:55 PM 26.4 °F 16.0 °F 18.5 °F 72% 30.26 in 10.0 mi NNW 11.5 mph - N/A   Overcast
2:15 PM 26.2 °F 15.2 °F 18.7 °F 73% 30.26 in 10.0 mi NNW 12.7 mph - N/A   Overcast
2:35 PM 26.2 °F 15.2 °F 18.9 °F 74% 30.27 in 10.0 mi NNW 12.7 mph - N/A   Overcast
2:55 PM 26.4 °F 18.0 °F 18.9 °F 73% 30.27 in 10.0 mi NNW 8.1 mph 16.1 mph N/A   Overcast
3:15 PM 26.2 °F 16.4 °F 19.0 °F 74% 30.26 in 10.0 mi NNW 10.4 mph - N/A   Overcast
3:35 PM 26.4 °F 17.3 °F 19.2 °F 74% 30.25 in 10.0 mi NNW 9.2 mph - N/A   Overcast
3:55 PM 26.4 °F 17.3 °F 19.2 °F 74% 30.28 in 10.0 mi NNW 9.2 mph - N/A   Overcast
4:15 PM 26.2 °F 17.1 °F 19.4 °F 75% 30.28 in 10.0 mi NNW 9.2 mph - N/A   Overcast
4:35 PM 25.7 °F 16.4 °F 19.2 °F 76% 30.27 in 7.0 mi NNW 9.2 mph - N/A   Overcast
4:55 PM 25.5 °F 16.9 °F 19.9 °F 79% 30.28 in 1.0 mi NNW 8.1 mph - N/A Snow Light Snow
5:15 PM 25.5 °F 18.7 °F 20.3 °F 81% 30.31 in 2.5 mi NW 5.8 mph - N/A Snow Light Snow
5:35 PM 25.7 °F 16.4 °F 20.1 °F 79% 30.30 in 7.0 mi NNW 9.2 mph - N/A Snow Light Snow
5:55 PM 25.3 °F 16.7 °F 20.3 °F 81% 30.30 in 5.0 mi NNW 8.1 mph - N/A Snow Light Snow
6:35 PM 25.2 °F 15.1 °F 20.1 °F 81% 30.32 in 2.5 mi NNW 10.4 mph - N/A Snow Light Snow
6:55 PM 24.8 °F 16.1 °F 20.1 °F 82% 30.34 in 2.0 mi NNW 8.1 mph - N/A Snow Light Snow
7:15 PM 24.8 °F 16.9 °F 20.1 °F 82% 30.34 in 4.0 mi NNW 6.9 mph - N/A Snow Light Snow
7:35 PM 25.0 °F 17.1 °F 19.6 °F 80% 30.33 in 10.0 mi NNW 6.9 mph - N/A   Overcast
7:55 PM 24.8 °F 16.1 °F 18.9 °F 78% 30.33 in 10.0 mi NNW 8.1 mph - N/A   Overcast
8:15 PM 24.8 °F 15.3 °F 19.0 °F 79% 30.34 in 10.0 mi NNW 9.2 mph - N/A   Overcast
8:35 PM 24.8 °F 15.3 °F 18.5 °F 77% 30.36 in 10.0 mi NNW 9.2 mph - N/A   Overcast
8:55 PM 24.6 °F 14.4 °F 18.1 °F 76% 30.37 in 10.0 mi NNW 10.4 mph - N/A   Overcast
9:15 PM 24.4 °F 14.2 °F 17.6 °F 75% 30.38 in 10.0 mi NNW 10.4 mph - N/A   Overcast
9:35 PM 24.1 °F 13.7 °F 17.4 °F 76% 30.39 in 10.0 mi NW 10.4 mph - N/A   Overcast
9:55 PM 23.7 °F 14.7 °F 16.7 °F 75% 30.40 in 10.0 mi NNW 8.1 mph - N/A   Overcast
10:15 PM 23.4 °F 13.5 °F 16.5 °F 75% 30.40 in 10.0 mi NW 9.2 mph - N/A   Overcast
10:35 PM 23.0 °F 13.9 °F 16.3 °F 76% 30.41 in 10.0 mi NW 8.1 mph - N/A   Overcast
10:55 PM 22.8 °F 13.6 °F 15.6 °F 74% 30.42 in 10.0 mi NNW 8.1 mph - N/A   Overcast
11:15 PM 21.9 °F 11.7 °F 14.9 °F 74% 30.43 in 10.0 mi NNW 9.2 mph - N/A   Overcast
11:35 PM 21.6 °F 11.3 °F 14.7 °F 75% 30.43 in 10.0 mi NNW 9.2 mph - N/A   Overcast
11:55 PM 21.0 °F 10.6 °F 14.4 °F 75% 30.43 in 10.0 mi NNW 9.2 mph - N/A   Mostly Cloudy